JES1519 SACO-SARE

Flight info

Callsign JES1519
Flight time 1h 6m
Altitude 37000
Route TREJO1C TREJO UL531 ESMOS ESMOS2Q
Aircraft A20N/M-SDE2E3FGHIRWXY/LB1

Departure

Time 2026-04-28 19:24
Airport Ingeniero Aeronáutico Ambrosio L.V. Taravella International Airport (SACO)

Arrival

Time 2026-04-28 20:30
Airport Resistencia International Airport (SARE)
Time Latitude Longitude Altitude Speed Heading
2026-04-28 19:14 -31.31618 -64.21170 1595 ft 0 kts 268°
2026-04-28 19:19 -31.31618 -64.21167 1574 ft 4 kts 268°
2026-04-28 19:19 -31.31617 -64.21125 1575 ft 5 kts 266°
2026-04-28 19:19 -31.31599 -64.21094 1574 ft 2 kts 191°
2026-04-28 19:19 -31.31597 -64.21093 1574 ft 0 kts 187°
2026-04-28 19:21 -31.31611 -64.21096 1575 ft 6 kts 187°
2026-04-28 19:21 -31.31697 -64.21101 1575 ft 18 kts 171°
2026-04-28 19:21 -31.31843 -64.21026 1575 ft 28 kts 175°
2026-04-28 19:22 -31.32061 -64.21023 1575 ft 30 kts 178°
2026-04-28 19:22 -31.32130 -64.21022 1575 ft 30 kts 181°
2026-04-28 19:22 -31.32425 -64.20972 1575 ft 19 kts 122°
2026-04-28 19:22 -31.32393 -64.20826 1573 ft 23 kts 36°
2026-04-28 19:23 -31.32336 -64.20814 1573 ft 0 kts 359°
2026-04-28 19:23 -31.32333 -64.20814 1573 ft 2 kts 359°
2026-04-28 19:23 -31.32216 -64.20816 1574 ft 45 kts 359°
2026-04-28 19:23 -31.31666 -64.20824 1576 ft 110 kts 359°
2026-04-28 19:24 -31.30725 -64.20835 1634 ft 154 kts 359°
2026-04-28 19:24 -31.29638 -64.20835 2241 ft 158 kts
2026-04-28 19:24 -31.28564 -64.20874 3054 ft 152 kts 358°
2026-04-28 19:24 -31.27473 -64.20948 3650 ft 165 kts 357°
2026-04-28 19:25 -31.26275 -64.20840 4095 ft 182 kts 20°
2026-04-28 19:25 -31.25217 -64.19981 4326 ft 195 kts 46°
2026-04-28 19:25 -31.24535 -64.18561 4912 ft 201 kts 68°
2026-04-28 19:25 -31.24218 -64.16963 5192 ft 212 kts 81°
2026-04-28 19:26 -31.24127 -64.15173 5786 ft 223 kts 90°
2026-04-28 19:26 -31.24218 -64.13440 6792 ft 214 kts 96°
2026-04-28 19:26 -31.24281 -64.11665 7449 ft 221 kts 90°
2026-04-28 19:26 -31.24250 -64.09839 8109 ft 233 kts 89°
2026-04-28 19:27 -31.24199 -64.07930 8518 ft 253 kts 90°
2026-04-28 19:27 -31.24153 -64.05738 9204 ft 264 kts 91°
2026-04-28 19:27 -31.24121 -64.03586 10115 ft 265 kts 91°
2026-04-28 19:27 -31.23981 -64.01410 10844 ft 274 kts 76°
2026-04-28 19:28 -31.23122 -63.99446 11555 ft 279 kts 51°
2026-04-28 19:28 -31.21836 -63.97645 12009 ft 300 kts 49°
2026-04-28 19:28 -31.20398 -63.95746 12283 ft 324 kts 48°
2026-04-28 19:28 -31.18930 -63.93815 12524 ft 347 kts 48°
2026-04-28 19:29 -31.17827 -63.92350 12688 ft 363 kts 48°
2026-04-28 19:29 -31.15993 -63.89891 13272 ft 375 kts 49°
2026-04-28 19:29 -31.14283 -63.87582 13811 ft 381 kts 49°
2026-04-28 19:30 -31.12557 -63.85242 14489 ft 373 kts 49°
2026-04-28 19:30 -31.10858 -63.82940 14631 ft 378 kts 49°
2026-04-28 19:30 -31.09130 -63.80556 15068 ft 387 kts 51°
2026-04-28 19:30 -31.07461 -63.78083 15882 ft 388 kts 52°
2026-04-28 19:31 -31.05799 -63.75568 16599 ft 392 kts 52°
2026-04-28 19:31 -31.04122 -63.73036 17284 ft 397 kts 52°
2026-04-28 19:31 -31.02421 -63.70487 18010 ft 399 kts 51°
2026-04-28 19:31 -31.00701 -63.67925 18620 ft 401 kts 51°
2026-04-28 19:32 -30.98985 -63.65379 18956 ft 408 kts 51°
2026-04-28 19:32 -30.97227 -63.62777 19587 ft 410 kts 51°
2026-04-28 19:32 -30.95454 -63.60155 20178 ft 413 kts 51°
2026-04-28 19:32 -30.93661 -63.57505 20771 ft 417 kts 51°
2026-04-28 19:33 -30.91855 -63.54838 21351 ft 420 kts 51°
2026-04-28 19:33 -30.90043 -63.52162 21709 ft 424 kts 51°
2026-04-28 19:33 -30.88204 -63.49449 22271 ft 427 kts 51°
2026-04-28 19:33 -30.86385 -63.46766 22852 ft 430 kts 51°
2026-04-28 19:34 -30.84524 -63.44025 23385 ft 432 kts 51°
2026-04-28 19:34 -30.82654 -63.41271 23575 ft 434 kts 51°
2026-04-28 19:34 -30.80762 -63.38486 23911 ft 439 kts 51°
2026-04-28 19:34 -30.78858 -63.35688 24458 ft 440 kts 51°
2026-04-28 19:35 -30.76952 -63.32881 24921 ft 443 kts 52°
2026-04-28 19:35 -30.75143 -63.30066 25359 ft 446 kts 54°
2026-04-28 19:35 -30.73304 -63.27095 25810 ft 449 kts 54°
2026-04-28 19:35 -30.71473 -63.24124 26254 ft 452 kts 54°
2026-04-28 19:36 -30.69627 -63.21146 26680 ft 454 kts 54°
2026-04-28 19:36 -30.67765 -63.18162 27082 ft 457 kts 54°
2026-04-28 19:36 -30.65885 -63.15165 27496 ft 460 kts 53°
2026-04-28 19:36 -30.63995 -63.12159 27891 ft 462 kts 53°
2026-04-28 19:37 -30.62115 -63.09173 28257 ft 465 kts 53°
2026-04-28 19:37 -30.60825 -63.07125 28478 ft 462 kts 53°
2026-04-28 19:37 -30.56377 -63.00072 28742 ft 469 kts 53°
2026-04-28 19:38 -30.54443 -62.97010 29159 ft 471 kts 53°
2026-04-28 19:38 -30.52500 -62.93935 29506 ft 473 kts 53°
2026-04-28 19:38 -30.50546 -62.90846 29835 ft 476 kts 53°
2026-04-28 19:38 -30.48582 -62.87742 30177 ft 478 kts 52°
2026-04-28 19:39 -30.46633 -62.84665 30474 ft 480 kts 52°
2026-04-28 19:39 -30.44647 -62.81531 30759 ft 482 kts 52°
2026-04-28 19:39 -30.42652 -62.78385 31056 ft 485 kts 52°
2026-04-28 19:39 -30.40650 -62.75232 31380 ft 486 kts 52°
2026-04-28 19:40 -30.38647 -62.72079 31747 ft 486 kts 52°
2026-04-28 19:40 -30.36638 -62.68918 32112 ft 486 kts 52°
2026-04-28 19:40 -30.34659 -62.65812 32448 ft 486 kts 51°
2026-04-28 19:40 -30.32645 -62.62663 32807 ft 486 kts 51°
2026-04-28 19:41 -30.30630 -62.59517 33125 ft 486 kts 51°
2026-04-28 19:41 -30.28610 -62.56364 33439 ft 487 kts 51°
2026-04-28 19:41 -30.26590 -62.53216 33766 ft 487 kts 51°
2026-04-28 19:41 -30.24569 -62.50070 34073 ft 487 kts 51°
2026-04-28 19:42 -30.22548 -62.46925 34335 ft 487 kts 51°
2026-04-28 19:42 -30.20548 -62.43814 34575 ft 487 kts 51°
2026-04-28 19:42 -30.18521 -62.40666 34814 ft 488 kts 50°
2026-04-28 19:42 -30.17150 -62.38537 34971 ft 488 kts 50°
2026-04-28 19:43 -30.14462 -62.34367 35274 ft 489 kts 50°
2026-04-28 19:43 -30.12428 -62.31214 35494 ft 489 kts 50°
2026-04-28 19:43 -30.10393 -62.28063 35706 ft 488 kts 50°
2026-04-28 19:43 -30.08369 -62.24929 35699 ft 487 kts 49°
2026-04-28 19:44 -30.06336 -62.21788 35822 ft 490 kts 49°
2026-04-28 19:44 -30.04321 -62.18671 35745 ft 482 kts 49°
2026-04-28 19:44 -30.02314 -62.15571 35574 ft 482 kts 49°
2026-04-28 19:44 -30.00292 -62.12456 35606 ft 487 kts 49°
2026-04-28 19:45 -29.98255 -62.09318 35723 ft 489 kts 49°
2026-04-28 19:45 -29.96210 -62.06168 35919 ft 490 kts 49°
2026-04-28 19:45 -29.94166 -62.03020 36133 ft 490 kts 49°
2026-04-28 19:45 -29.92145 -61.99911 36333 ft 491 kts 49°
2026-04-28 19:46 -29.90093 -61.96757 36522 ft 491 kts 49°
2026-04-28 19:46 -29.88038 -61.93608 36708 ft 491 kts 47°
2026-04-28 19:46 -29.85888 -61.90724 36993 ft 485 kts 41°
2026-04-28 19:46 -29.83578 -61.87900 37051 ft 483 kts 41°
2026-04-28 19:47 -29.78979 -61.82249 37049 ft 483 kts 41°
2026-04-28 19:47 -29.74377 -61.76597 37047 ft 483 kts 41°
2026-04-28 19:48 -29.69800 -61.70985 37046 ft 483 kts 41°
2026-04-28 19:48 -29.65195 -61.65349 37046 ft 484 kts 41°
2026-04-28 19:49 -29.60579 -61.59707 37046 ft 484 kts 40°
2026-04-28 19:49 -29.55953 -61.54061 37045 ft 484 kts 40°
2026-04-28 19:50 -29.49054 -61.45655 37051 ft 484 kts 40°
2026-04-28 19:51 -29.44469 -61.40076 37053 ft 480 kts 40°
2026-04-28 19:51 -29.39837 -61.34457 37054 ft 485 kts 40°
2026-04-28 19:52 -29.35208 -61.28842 37050 ft 484 kts 39°
2026-04-28 19:52 -29.30609 -61.23271 37050 ft 484 kts 39°
2026-04-28 19:53 -29.26004 -61.17702 37049 ft 483 kts 39°
2026-04-28 19:53 -29.21363 -61.12101 37048 ft 484 kts 39°
2026-04-28 19:54 -29.16727 -61.06508 37051 ft 483 kts 39°
2026-04-28 19:54 -29.12124 -61.00965 37051 ft 483 kts 39°
2026-04-28 19:55 -29.07481 -60.95415 37053 ft 482 kts 38°
2026-04-28 19:55 -29.02827 -60.89931 37052 ft 481 kts 38°
2026-04-28 19:56 -28.98194 -60.84470 37059 ft 481 kts 37°
2026-04-28 19:56 -28.93514 -60.78961 37055 ft 483 kts 37°
2026-04-28 19:57 -28.88889 -60.73511 37059 ft 480 kts 37°
2026-04-28 19:57 -28.84212 -60.68017 37062 ft 483 kts 37°
2026-04-28 19:58 -28.79543 -60.62534 37054 ft 480 kts 37°
2026-04-28 19:58 -28.74912 -60.57078 37063 ft 481 kts 37°
2026-04-28 19:59 -28.70268 -60.51546 37062 ft 482 kts 37°
2026-04-28 19:59 -28.65636 -60.46031 37059 ft 481 kts 37°
2026-04-28 20:00 -28.60997 -60.40527 37063 ft 481 kts 37°
2026-04-28 20:00 -28.56391 -60.35073 37066 ft 480 kts 36°
2026-04-28 20:01 -28.51760 -60.29595 37072 ft 480 kts 36°
2026-04-28 20:01 -28.47117 -60.24110 37073 ft 480 kts 36°
2026-04-28 20:02 -28.42478 -60.18638 37075 ft 480 kts 36°
2026-04-28 20:02 -28.37882 -60.13220 37056 ft 475 kts 36°
2026-04-28 20:03 -28.33276 -60.07805 37072 ft 480 kts 35°
2026-04-28 20:03 -28.28633 -60.02352 37087 ft 479 kts 35°
2026-04-28 20:04 -28.24010 -59.96922 36552 ft 477 kts 35°
2026-04-28 20:04 -28.21689 -59.94205 35810 ft 481 kts 35°
2026-04-28 20:04 -28.19377 -59.91504 34921 ft 487 kts 35°
2026-04-28 20:04 -28.16969 -59.88695 33921 ft 494 kts 36°
2026-04-28 20:05 -28.14590 -59.85920 32916 ft 499 kts 36°
2026-04-28 20:05 -28.12170 -59.83093 31991 ft 500 kts 37°
2026-04-28 20:05 -28.09736 -59.80282 31112 ft 498 kts 35°
2026-04-28 20:05 -28.07148 -59.77720 30249 ft 493 kts 32°
2026-04-28 20:06 -28.04511 -59.75231 29248 ft 493 kts 32°
2026-04-28 20:06 -28.01895 -59.72753 28640 ft 486 kts 33°
2026-04-28 20:06 -27.99331 -59.70318 28072 ft 478 kts 33°
2026-04-28 20:06 -27.96797 -59.67916 27446 ft 472 kts 33°
2026-04-28 20:07 -27.94290 -59.65544 26841 ft 466 kts 33°
2026-04-28 20:07 -27.92652 -59.63994 26440 ft 463 kts 33°
2026-04-28 20:07 -27.89369 -59.60894 25635 ft 456 kts 34°
2026-04-28 20:07 -27.86935 -59.58598 24995 ft 453 kts 34°
2026-04-28 20:08 -27.84560 -59.56358 24417 ft 448 kts 34°
2026-04-28 20:08 -27.82179 -59.54114 23847 ft 444 kts 35°
2026-04-28 20:08 -27.79811 -59.51881 23237 ft 440 kts 35°
2026-04-28 20:08 -27.77472 -59.49676 22654 ft 434 kts 35°
2026-04-28 20:09 -27.75168 -59.47503 22068 ft 428 kts 35°
2026-04-28 20:09 -27.72896 -59.45364 21498 ft 423 kts 35°
2026-04-28 20:09 -27.70640 -59.43240 20922 ft 419 kts 35°
2026-04-28 20:09 -27.68442 -59.41173 20360 ft 414 kts 36°
2026-04-28 20:10 -27.66135 -59.39191 19788 ft 407 kts 29°
2026-04-28 20:10 -27.63740 -59.37625 19247 ft 399 kts 22°
2026-04-28 20:10 -27.61221 -59.36357 18660 ft 395 kts 19°
2026-04-28 20:10 -27.58715 -59.35117 18125 ft 390 kts 20°
2026-04-28 20:11 -27.56243 -59.33889 17580 ft 385 kts 20°
2026-04-28 20:11 -27.53811 -59.32679 17047 ft 380 kts 20°
2026-04-28 20:11 -27.51398 -59.31480 16520 ft 376 kts 20°
2026-04-28 20:11 -27.49004 -59.30292 15993 ft 373 kts 20°
2026-04-28 20:12 -27.46674 -59.29137 15472 ft 370 kts 20°
2026-04-28 20:12 -27.44324 -59.27973 14960 ft 367 kts 20°
2026-04-28 20:12 -27.41991 -59.26818 14448 ft 365 kts 20°
2026-04-28 20:12 -27.40429 -59.26045 14220 ft 360 kts 20°
2026-04-28 20:13 -27.37390 -59.24541 13972 ft 356 kts 20°
2026-04-28 20:13 -27.35162 -59.23436 13778 ft 345 kts 20°
2026-04-28 20:13 -27.32995 -59.22363 13570 ft 335 kts 20°
2026-04-28 20:13 -27.30896 -59.21324 13359 ft 324 kts 20°
2026-04-28 20:14 -27.29094 -59.20435 13172 ft 316 kts 20°
2026-04-28 20:14 -27.27096 -59.19495 12967 ft 307 kts 19°
2026-04-28 20:14 -27.25167 -59.18615 12766 ft 299 kts 19°
2026-04-28 20:14 -27.23877 -59.18030 12628 ft 293 kts 19°
2026-04-28 20:15 -27.21423 -59.16912 12355 ft 282 kts 19°
2026-04-28 20:15 -27.19627 -59.16089 12154 ft 274 kts 19°
2026-04-28 20:15 -27.17885 -59.15289 11952 ft 267 kts 19°
2026-04-28 20:15 -27.16187 -59.14508 11783 ft 262 kts 19°
2026-04-28 20:16 -27.15064 -59.13985 11655 ft 265 kts 22°
2026-04-28 20:16 -27.13605 -59.12713 11507 ft 270 kts 50°
2026-04-28 20:16 -27.12819 -59.10796 11368 ft 275 kts 78°
2026-04-28 20:16 -27.12900 -59.08661 11217 ft 277 kts 105°
2026-04-28 20:17 -27.13602 -59.06653 11069 ft 275 kts 115°
2026-04-28 20:17 -27.14450 -59.04729 10925 ft 275 kts 116°
2026-04-28 20:17 -27.15288 -59.02791 10786 ft 275 kts 114°
2026-04-28 20:17 -27.16075 -59.00834 10640 ft 274 kts 113°
2026-04-28 20:18 -27.16808 -58.98896 10499 ft 272 kts 112°
2026-04-28 20:18 -27.17620 -58.96977 10353 ft 271 kts 126°
2026-04-28 20:18 -27.19021 -58.95589 10214 ft 271 kts 155°
2026-04-28 20:18 -27.20822 -58.95093 10077 ft 268 kts 184°
2026-04-28 20:19 -27.22619 -58.95536 9939 ft 263 kts 204°
2026-04-28 20:19 -27.24270 -58.96369 9788 ft 256 kts 208°
2026-04-28 20:19 -27.25857 -58.97230 9555 ft 251 kts 207°
2026-04-28 20:19 -27.27431 -58.98030 9346 ft 243 kts 205°
2026-04-28 20:20 -27.28938 -58.98755 9152 ft 234 kts 211°
2026-04-28 20:20 -27.30094 -58.99967 8897 ft 229 kts 244°
2026-04-28 20:20 -27.30462 -59.01665 8759 ft 220 kts 277°
2026-04-28 20:20 -27.29996 -59.03244 8578 ft 211 kts 304°
2026-04-28 20:21 -27.28980 -59.04411 8245 ft 210 kts 329°
2026-04-28 20:21 -27.27623 -59.04985 7935 ft 210 kts 353°
2026-04-28 20:21 -27.26179 -59.04833 7610 ft 211 kts 19°
2026-04-28 20:21 -27.24813 -59.04236 7318 ft 210 kts 20°
2026-04-28 20:22 -27.23448 -59.03653 7018 ft 209 kts 20°
2026-04-28 20:22 -27.22083 -59.03081 6728 ft 209 kts 21°
2026-04-28 20:22 -27.20723 -59.02514 6434 ft 209 kts 21°
2026-04-28 20:22 -27.19395 -59.01869 6144 ft 208 kts 35°
2026-04-28 20:23 -27.18428 -59.00749 5968 ft 198 kts 61°
2026-04-28 20:23 -27.17998 -58.99317 5684 ft 194 kts 86°
2026-04-28 20:23 -27.18168 -58.97834 5329 ft 193 kts 111°
2026-04-28 20:23 -27.18895 -58.96585 4991 ft 192 kts 136°
2026-04-28 20:24 -27.20026 -58.95804 4607 ft 193 kts 161°
2026-04-28 20:24 -27.21357 -58.95644 4229 ft 194 kts 187°
2026-04-28 20:24 -27.22613 -58.96021 4171 ft 176 kts 198°
2026-04-28 20:24 -27.23692 -58.96484 4076 ft 159 kts 199°
2026-04-28 20:25 -27.24734 -58.96931 3975 ft 161 kts 198°
2026-04-28 20:25 -27.25779 -58.97377 3812 ft 159 kts 198°
2026-04-28 20:25 -27.26811 -58.97819 3640 ft 158 kts 198°
2026-04-28 20:25 -27.27838 -58.98258 3460 ft 157 kts 198°
2026-04-28 20:26 -27.28861 -58.98696 3256 ft 157 kts 198°
2026-04-28 20:26 -27.29882 -58.99133 3061 ft 157 kts 198°
2026-04-28 20:26 -27.30870 -58.99558 2869 ft 146 kts 198°
2026-04-28 20:26 -27.31782 -58.99947 2670 ft 137 kts 198°
2026-04-28 20:27 -27.32684 -59.00333 2497 ft 139 kts 198°
2026-04-28 20:27 -27.33585 -59.00719 2311 ft 138 kts 198°
2026-04-28 20:27 -27.34480 -59.01102 2129 ft 137 kts 198°
2026-04-28 20:27 -27.35371 -59.01484 1947 ft 138 kts 198°
2026-04-28 20:28 -27.36266 -59.01868 1739 ft 135 kts 198°
2026-04-28 20:28 -27.37153 -59.02247 1574 ft 137 kts 198°
2026-04-28 20:28 -27.38036 -59.02626 1398 ft 139 kts 198°
2026-04-28 20:28 -27.38934 -59.03011 1207 ft 134 kts 198°
2026-04-28 20:29 -27.39799 -59.03382 1035 ft 136 kts 198°
2026-04-28 20:29 -27.40680 -59.03761 842 ft 133 kts 198°
2026-04-28 20:29 -27.41547 -59.04132 679 ft 133 kts 198°
2026-04-28 20:29 -27.42423 -59.04507 514 ft 135 kts 198°
2026-04-28 20:30 -27.43297 -59.04886 334 ft 134 kts 199°
2026-04-28 20:30 -27.44172 -59.05262 206 ft 134 kts 198°
2026-04-28 20:30 -27.44822 -59.05530 194 ft 49 kts 203°
2026-04-28 20:30 -27.45016 -59.05616 194 ft 35 kts 200°
2026-04-28 20:31 -27.45295 -59.05732 187 ft 49 kts 199°
2026-04-28 20:31 -27.45571 -59.05849 190 ft 30 kts 201°
2026-04-28 20:31 -27.45835 -59.05964 199 ft 49 kts 202°
2026-04-28 20:31 -27.46091 -59.06043 195 ft 34 kts 180°
2026-04-28 20:32 -27.46140 -59.06104 189 ft 8 kts 301°
2026-04-28 20:32 -27.46119 -59.06111 197 ft 5 kts 35°
2026-04-28 20:32 -27.46029 -59.06047 193 ft 25 kts 19°
2026-04-28 20:32 -27.45823 -59.05956 201 ft 37 kts 21°
2026-04-28 20:33 -27.45571 -59.05845 189 ft 39 kts 19°
2026-04-28 20:33 -27.45297 -59.05722 197 ft 45 kts 15°
2026-04-28 20:33 -27.44995 -59.05604 196 ft 48 kts 20°
2026-04-28 20:33 -27.44778 -59.05459 190 ft 31 kts 52°
2026-04-28 20:34 -27.44718 -59.05351 202 ft 0 kts 57°
2026-04-28 20:34 -27.44718 -59.05350 203 ft 1 kts 57°
2026-04-28 20:34 -27.44692 -59.05306 202 ft 14 kts 57°
2026-04-28 20:34 -27.44612 -59.05163 195 ft 25 kts 58°
2026-04-28 20:35 -27.44538 -59.05013 202 ft 10 kts 62°
2026-04-28 20:35 -27.44520 -59.04952 196 ft 6 kts 140°
2026-04-28 20:35 -27.44534 -59.04950 200 ft 0 kts 184°